When you browse on this site, cookies collect data to enhance your experience and personalize the content and advertising you see.
Visit our Privacy Policy to learn more. By continuing to use the site, you agree to this use of cookies and data.
  • In Portugal
  • List of Countries
  • For 7 days
  • Water Temperature
  • Satellite Maps
  • Weather Map
  • Weather Widgets
  • user-avatar
    Login

    Hourly Weather Tiba

    Today, 21 July, Sunday

    Time Temperature Precipitation Wind Pressure Humidity
    00:00 +28°C° 0 mm 1 mps 761 mmHg 79%
    01:00 +28°C° 0 mm 1 mps 761 mmHg 79%
    02:00 +28°C° 0 mm 1 mps 760 mmHg 80%
    03:00 +28°C° 0 mm 1 mps 760 mmHg 81%
    04:00 +28°C° 0 mm 1 mps 760 mmHg 82%
    05:00 +27°C° 0 mm 2 mps 760 mmHg 83%
    06:00 +27°C° 0 mm 3 mps 761 mmHg 85%
    07:00 +28°C° 0 mm 3 mps 761 mmHg 83%
    08:00 +28°C° 0 mm 3 mps 761 mmHg 80%
    09:00 +28°C° 0 mm 2 mps 761 mmHg 81%
    10:00 +28°C° 0 mm 3 mps 761 mmHg 80%
    11:00 +28°C° 0 mm 3 mps 761 mmHg 80%
    12:00 +28°C° 0 mm 4 mps 761 mmHg 79%
    13:00 +28°C° 0.1 mm 4 mps 760 mmHg 79%
    14:00 +28°C° 0.1 mm 4 mps 760 mmHg 79%
    15:00 +28°C° 0 mm 3 mps 760 mmHg 85%
    16:00 +28°C° 0.1 mm 3 mps 760 mmHg 85%
    17:00 +28°C° 0.1 mm 3 mps 760 mmHg 84%
    18:00 +27°C° 0.1 mm 3 mps 760 mmHg 84%
    19:00 +27°C° 0 mm 3 mps 760 mmHg 85%
    20:00 +27°C° 0 mm 3 mps 760 mmHg 86%
    21:00 +26°C° 0 mm 4 mps 760 mmHg 83%
    22:00 +26°C° 0 mm 4 mps 760 mmHg 83%
    23:00 +26°C° 0 mm 4 mps 760 mmHg 83%

    Tomorrow, 22 July, Monday

    Time Temperature Precipitation Wind Pressure Humidity
    00:00 +25°C° 0 mm 4 mps 760 mmHg 84%
    01:00 +25°C° 0 mm 3 mps 759 mmHg 85%
    02:00 +25°C° 0 mm 3 mps 759 mmHg 85%
    03:00 +25°C° 0 mm 2 mps 759 mmHg 86%
    04:00 +25°C° 0.1 mm 3 mps 759 mmHg 87%
    05:00 +25°C° 0.1 mm 3 mps 759 mmHg 87%
    06:00 +25°C° 0.1 mm 3 mps 759 mmHg 88%
    07:00 +26°C° 0.1 mm 3 mps 759 mmHg 86%
    08:00 +26°C° 0.1 mm 2 mps 759 mmHg 85%
    09:00 +26°C° 0.1 mm 2 mps 758 mmHg 83%
    10:00 +27°C° 0.1 mm 2 mps 758 mmHg 81%
    11:00 +28°C° 0.1 mm 2 mps 758 mmHg 78%
    12:00 +29°C° 0.1 mm 2 mps 758 mmHg 75%
    13:00 +29°C° 0.6 mm 2 mps 758 mmHg 74%
    14:00 +29°C° 0.6 mm 2 mps 757 mmHg 74%
    15:00 +29°C° 0.6 mm 2 mps 757 mmHg 74%
    16:00 +29°C° 1 mm 2 mps 757 mmHg 75%
    17:00 +28°C° 1 mm 2 mps 757 mmHg 77%
    18:00 +28°C° 1 mm 1 mps 757 mmHg 79%
    19:00 +28°C° 0.1 mm 2 mps 757 mmHg 79%
    20:00 +27°C° 0.1 mm 2 mps 757 mmHg 80%
    21:00 +27°C° 0.1 mm 2 mps 757 mmHg 81%
    22:00 +27°C° 0 mm 2 mps 757 mmHg 82%
    23:00 +27°C° 0 mm 1 mps 756 mmHg 82%

    Day after tomorrow, 23 July, Tuesday

    Time Temperature Precipitation Wind Pressure Humidity
    00:00 +26°C° 0 mm 1 mps 756 mmHg 83%
    01:00 +26°C° 0 mm 1 mps 756 mmHg 83%
    02:00 +26°C° 0 mm 1 mps 756 mmHg 84%
    03:00 +26°C° 0 mm 1 mps 756 mmHg 84%
    04:00 +26°C° 0 mm 1 mps 756 mmHg 84%
    05:00 +26°C° 0 mm 1 mps 756 mmHg 83%
    06:00 +26°C° 0 mm 1 mps 756 mmHg 82%
    07:00 +28°C° 0 mm 1 mps 756 mmHg 75%
    08:00 +29°C° 0 mm 1 mps 756 mmHg 68%
    09:00 +31°C° 0 mm 1 mps 756 mmHg 61%
    10:00 +31°C° 0.2 mm 1 mps 755 mmHg 59%
    11:00 +32°C° 0.2 mm 1 mps 755 mmHg 57%
    12:00 +33°C° 0.2 mm 1 mps 754 mmHg 55%
    13:00 +32°C° 0.4 mm 2 mps 754 mmHg 58%
    14:00 +33°C° 0.4 mm 3 mps 754 mmHg 60%
    15:00 +32°C° 0.4 mm 4 mps 754 mmHg 63%
    16:00 +30°C° 0.7 mm 3 mps 754 mmHg 66%
    17:00 +30°C° 0.7 mm 3 mps 754 mmHg 69%
    18:00 +29°C° 0.7 mm 3 mps 754 mmHg 73%
    19:00 +29°C° 1.3 mm 3 mps 754 mmHg 75%
    20:00 +28°C° 1.3 mm 3 mps 754 mmHg 77%
    21:00 +28°C° 1.3 mm 2 mps 755 mmHg 80%
    22:00 +28°C° 0.2 mm 2 mps 755 mmHg 80%
    23:00 +27°C° 0.2 mm 2 mps 754 mmHg 80%

    24 July, Wednesday

    Time Temperature Precipitation Wind Pressure Humidity
    00:00 +27°C° 0.2 mm 2 mps 754 mmHg 81%
    01:00 +27°C° 0 mm 1 mps 754 mmHg 82%
    02:00 +27°C° 0 mm 1 mps 754 mmHg 83%
    03:00 +27°C° 0 mm 1 mps 754 mmHg 83%
    04:00 +27°C° 0 mm 1 mps 754 mmHg 82%
    05:00 +25°C° 0 mm 0 mps 754 mmHg 81%
    06:00 +25°C° 0 mm 0 mps 755 mmHg 80%
    07:00 +27°C° 0 mm 0 mps 755 mmHg 72%
    08:00 +29°C° 0 mm 0 mps 755 mmHg 64%
    09:00 +30°C° 0 mm 0 mps 755 mmHg 57%
    10:00 +33°C° 0.2 mm 1 mps 755 mmHg 55%
    11:00 +35°C° 0.2 mm 2 mps 755 mmHg 53%
    12:00 +35°C° 0.2 mm 2 mps 755 mmHg 51%
    13:00 +35°C° 0.1 mm 3 mps 754 mmHg 52%
    14:00 +35°C° 0.1 mm 4 mps 754 mmHg 53%
    15:00 +34°C° 0.1 mm 5 mps 754 mmHg 55%
    16:00 +34°C° 0 mm 5 mps 754 mmHg 58%
    17:00 +33°C° 0 mm 4 mps 755 mmHg 61%
    18:00 +32°C° 0 mm 4 mps 755 mmHg 65%
    19:00 +32°C° 0 mm 4 mps 755 mmHg 68%
    20:00 +30°C° 0 mm 4 mps 756 mmHg 71%
    21:00 +29°C° 0 mm 4 mps 756 mmHg 74%
    22:00 +29°C° 0 mm 4 mps 756 mmHg 76%
    23:00 +29°C° 0 mm 5 mps 756 mmHg 77%

    25 July, Thursday

    Time Temperature Precipitation Wind Pressure Humidity
    00:00 +28°C° 0 mm 5 mps 756 mmHg 78%
    01:00 +28°C° 0 mm 5 mps 756 mmHg 79%
    02:00 +28°C° 0 mm 4 mps 756 mmHg 80%
    03:00 +28°C° 0 mm 4 mps 756 mmHg 81%
    04:00 +28°C° 0 mm 4 mps 757 mmHg 80%
    05:00 +28°C° 0 mm 4 mps 757 mmHg 79%
    06:00 +28°C° 0 mm 4 mps 757 mmHg 78%
    07:00 +30°C° 0 mm 4 mps 757 mmHg 72%
    08:00 +32°C° 0 mm 4 mps 757 mmHg 65%
    09:00 +33°C° 0 mm 4 mps 757 mmHg 58%
    10:00 +34°C° 0 mm 4 mps 757 mmHg 55%
    11:00 +35°C° 0 mm 4 mps 757 mmHg 52%
    12:00 +36°C° 0 mm 5 mps 757 mmHg 49%
    13:00 +36°C° 0 mm 5 mps 757 mmHg 49%
    14:00 +35°C° 0 mm 6 mps 756 mmHg 50%
    15:00 +35°C° 0 mm 6 mps 756 mmHg 51%
    16:00 +34°C° 0 mm 6 mps 756 mmHg 55%
    17:00 +33°C° 0 mm 6 mps 757 mmHg 58%
    18:00 +32°C° 0 mm 6 mps 757 mmHg 62%
    19:00 +32°C° 0 mm 5 mps 757 mmHg 64%
    20:00 +30°C° 0 mm 5 mps 758 mmHg 67%
    21:00 +30°C° 0 mm 5 mps 758 mmHg 70%
    22:00 +29°C° 0 mm 5 mps 758 mmHg 72%
    23:00 +29°C° 0 mm 5 mps 758 mmHg 74%

    26 July, Friday

    Time Temperature Precipitation Wind Pressure Humidity
    00:00 +28°C° 0 mm 6 mps 758 mmHg 76%
    01:00 +28°C° 0 mm 5 mps 758 mmHg 77%
    02:00 +28°C° 0 mm 5 mps 758 mmHg 77%
    03:00 +28°C° 0 mm 4 mps 758 mmHg 78%
    04:00 +28°C° 0 mm 4 mps 758 mmHg 77%
    05:00 +28°C° 0 mm 4 mps 758 mmHg 77%
    06:00 +28°C° 0 mm 4 mps 758 mmHg 77%
    07:00 +29°C° 0 mm 4 mps 758 mmHg 71%
    08:00 +30°C° 0 mm 4 mps 758 mmHg 66%
    09:00 +33°C° 0 mm 3 mps 758 mmHg 61%
    10:00 +33°C° 0.7 mm 4 mps 758 mmHg 60%
    11:00 +33°C° 0.7 mm 4 mps 758 mmHg 60%
    12:00 +34°C° 0.7 mm 4 mps 757 mmHg 60%
    13:00 +34°C° 0.4 mm 4 mps 757 mmHg 59%
    14:00 +34°C° 0.4 mm 5 mps 757 mmHg 58%
    15:00 +34°C° 0.4 mm 5 mps 756 mmHg 56%
    16:00 +34°C° 0 mm 4 mps 756 mmHg 59%
    17:00 +33°C° 0 mm 4 mps 756 mmHg 62%
    18:00 +32°C° 0 mm 4 mps 756 mmHg 64%
    19:00 +32°C° 0 mm 4 mps 756 mmHg 69%
    20:00 +30°C° 0 mm 3 mps 757 mmHg 73%
    21:00 +29°C° 0 mm 3 mps 757 mmHg 77%
    22:00 +29°C° 0 mm 2 mps 756 mmHg 78%
    23:00 +29°C° 0 mm 2 mps 756 mmHg 80%
    Show more